Regional Weather Roundup
Issued by NWS Cleveland, OH

Home | Current Version | Previous Version | Text Only | Print | Product List | Glossary Off
Versions: 1 2 3 4 5 6 7 8 9 10 11 12 13 14 15 16 17 18 19 20 21 22 23 24 25 26 27 28 29 30 31 32 33 34 35 36 37 38 39 40 41 42 43 44 45 46 47 48 49 50

120
ASUS41 KCLE 050000
RWRCLE
OHIO REGIONAL WEATHER ROUNDUP
NATIONAL WEATHER SERVICE WILMINGTON, OH
700 PM EST SUN DEC 04 2016

NOTE: "FAIR" INDICATES FEW OR NO CLOUDS BELOW 12,000 FEET WITH NO
SIGNIFICANT WEATHER AND/OR OBSTRUCTIONS TO VISIBILITY.

OHZ001>008-015>018-024>027-034-035-043-044-050100-
   NORTHWEST OHIO

CITY           SKY/WX    TMP DP  RH WIND       PRES   REMARKS
DEFIANCE       LGT SNOW  34  31  88 E10       29.89F FOG     WCI  26
FINDLAY        LGT SNOW  34  31  88 E6        29.90F VSB 1   WCI  29
TOLEDO EXPRESS LGT SNOW  32  32 100 E9        29.91F FOG     WCI  24
TOLEDO EXEC    LGT SNOW  33  33 100 E8        29.94F VSB 1   WCI  26
LIMA           LGT SNOW  33  33 100 E8        29.90F VSB 1   WCI  26
$$

OHZ009>014-019>023-028>033-038-089-050100-
   NORTHEAST OHIO

CITY           SKY/WX    TMP DP  RH WIND       PRES   REMARKS
CLE-HOPKINS    CLOUDY    41  28  60 SE10      29.95F
CLE-LAKEFRONT  CLOUDY    42  29  59 E15G23    29.92F
CUY CO. ARPT   CLOUDY    41  32  70 SE12      29.94F
LORAIN-ELYRIA  CLOUDY    39  27  62 SE8       29.94F
ASHTABULA      MOCLDY    38  30  73 SE7       29.99F
AKRON-CANTON   CLOUDY    39  27  62 SE13      29.94F
WOOSTER        NOT AVBL
MANSFIELD      LGT SNOW  35  30  82 SE12      29.92S WCI  27
YOUNGSTOWN     CLOUDY    38  28  67 E10       29.95F
$$

OHZ042-051>053-060>062-070>072-077>081-050100-
  SOUTHWEST OHIO

CITY           SKY/WX    TMP DP  RH WIND       PRES   REMARKS
CINC-COVINGTON LGT RAIN  41  40  96 SE6       29.88F FOG
CINC-LUNKEN    LGT RAIN  41  41 100 CALM      29.92S FOG
HAMILTON       LGT RAIN  40  38  93 E3        29.91F FOG
DAYTON         NOT AVBL
WRIGHT-PAT AFB LGT RAIN  37  37 100 SE5       29.90S FOG
DAYTON GENERAL LGT RAIN  38  35  89 SE7       29.89S FOG
WILMINGTON     CLOUDY    37  36  96 SE7       29.89F FOG
$$

OHZ036-037-039>041-045>050-054>059-063>069-073>076-082>088-050100-
  CENTRAL AND SOUTHEAST OHIO

CITY           SKY/WX    TMP DP  RH WIND       PRES   REMARKS
COLUMBUS       LGT RAIN  37  36  96 SE7       29.92F FOG
OSU AIRPORT    LGT RAIN  37  35  92 SE8       29.91F FOG
BOLTON FIELD   LGT RAIN  36  36 100 SE7       29.92F
RICKENBACK AFB NOT AVBL
NEWARK         LGT RAIN  38  33  82 E3        29.93F
MARION         LGT SNOW  34  31  88 SE10      29.92F FOG     WCI  26
LANCASTER      LGT RAIN  37  35  92 SE8       29.92F FOG
ZANESVILLE     RAIN      39  32  76 CALM      29.95R
NEW PHILLY     LGT RAIN  40  30  67 SE7       29.94F
$$




USA.gov is the U.S. government's official web portal to all federal, state and local government web resources and services.